Cedar Rapids, IA

6:24 PM CST on November 18, 2019 (GMT -0600)
The Eastern Iowa Airport

Weather History for KCID - September, 2019

Change the Weather History Date:

Monday, September 30, 2019

  Actual Average Record
Temperature  
Mean Temperature 77 °F 57 °F  
Max Temperature 88 °F 69 °F 91 °F (1994)
Min Temperature 66 °F 45 °F 22 °F (1899)
Degree Days  
Heating Degree Days 0 9  
Month to date heating degree days 34 138  
Since 1 July heating degree days 42 157  
Cooling Degree Days 12 1  
Month to date cooling degree days 137 72  
Year to date cooling degree days 789 740  
Growing Degree Days 27 (Base 50)    
Moisture  
Dew Point 68 °F    
Average Humidity 78    
Maximum Humidity 100    
Minimum Humidity 55    
Precipitation  
Precipitation 0.00 in 0.09 in 2.25 in (1893)
Month to date precipitation 6.51 3.16  
Year to date precipitation 34.36 28.46  
Sea Level Pressure  
Sea Level Pressure 29.90 in    
Wind  
Wind Speed 13 mph (South)    
Max Wind Speed 24 mph    
Max Gust Speed 34 mph    
Visibility 8 miles    
Events      
T = Trace of Precipitation, MM = Missing Value Source: NWS Daily Summary

Daily Weather History Graph

Daily Weather History Graph

Search for Another Location

Airport or City:

Astronomy

Sep. 30, 2019 Rise Set
Actual Time 7:02 AM CDT 6:50 PM CDT
Civil Twilight 6:34 AM CDT 7:18 PM CDT
Nautical Twilight 6:02 AM CDT 7:50 PM CDT
Astronomical Twilight 5:29 AM CDT 8:23 PM CDT
Moon 9:08 AM CDT (9/30) 8:24 PM CDT (9/30)
Length of Visible Light 12h 43m
Length of Day
11h 48m
Waxing Crescent, 6% of the Moon is Illuminated
Sep 30
Waxing Crescent
Oct 5
First Quarter
Oct 13
Full
Oct 21
Last Quarter
Oct 27
New

Hourly Weather History & Observations

Time (CDT) Temp. Heat Index Dew Point Humidity Pressure Visibility Wind Dir Wind Speed Gust Speed Precip Events Conditions
12:47 AM 66.2 °F - 66.2 °F 100% 29.99 in 1.2 mi SE 9.2 mph - N/A   Overcast
12:52 AM 66.0 °F - 66.0 °F 100% 29.99 in 1.8 mi SE 10.4 mph - N/A   Overcast
1:00 AM 66.0 °F - 66.0 °F 100% 29.99 in 3.0 mi SE 10.4 mph - N/A   Overcast
1:52 AM 66.9 °F - 66.9 °F 100% 29.97 in 4.0 mi SSE 12.7 mph - N/A   Overcast
2:52 AM 66.9 °F - 66.9 °F 100% 29.97 in 4.0 mi South 6.9 mph - N/A   Overcast
3:52 AM 66.9 °F - 66.9 °F 100% 29.96 in 4.0 mi South 6.9 mph - N/A   Scattered Clouds
4:52 AM 66.9 °F - 66.9 °F 100% 29.96 in 6.0 mi SSE 6.9 mph - N/A   Scattered Clouds
5:52 AM 68.0 °F - 66.9 °F 96% 29.94 in 9.0 mi South 9.2 mph - N/A   Scattered Clouds
6:52 AM 66.9 °F - 66.9 °F 100% 29.94 in 8.0 mi SSE 6.9 mph - N/A   Clear
7:52 AM 70.0 °F - 68.0 °F 93% 29.94 in 8.0 mi South 9.2 mph - N/A   Overcast
8:52 AM 73.0 °F - 69.1 °F 87% 29.93 in 9.0 mi South 15.0 mph 23.0 mph N/A   Overcast
9:52 AM 77.0 °F - 70.0 °F 79% 29.91 in 10.0 mi SSW 13.8 mph 25.3 mph N/A   Clear
10:52 AM 80.1 °F 83.2 °F 70.0 °F 71% 29.90 in 10.0 mi SSW 16.1 mph 28.8 mph N/A   Clear
11:52 AM 82.9 °F 87.0 °F 70.0 °F 65% 29.88 in 10.0 mi SSW 16.1 mph 29.9 mph N/A   Clear
12:52 PM 84.9 °F 89.4 °F 70.0 °F 61% 29.87 in 10.0 mi SSW 18.4 mph 26.5 mph N/A   Clear
1:52 PM 87.1 °F 92.0 °F 70.0 °F 57% 29.85 in 10.0 mi South 18.4 mph 28.8 mph N/A   Clear
2:52 PM 88.0 °F 92.9 °F 70.0 °F 55% 29.84 in 10.0 mi South 19.6 mph 28.8 mph N/A   Clear
3:52 PM 86.0 °F 90.1 °F 69.1 °F 57% 29.83 in 10.0 mi SSW 17.3 mph 33.4 mph N/A   Clear
4:52 PM 86.0 °F 90.1 °F 69.1 °F 57% 29.83 in 10.0 mi SSW 20.7 mph 33.4 mph N/A   Clear
5:52 PM 84.0 °F 88.4 °F 70.0 °F 63% 29.83 in 10.0 mi South 12.7 mph - N/A   Clear
6:52 PM 81.0 °F 84.1 °F 69.1 °F 67% 29.83 in 10.0 mi South 12.7 mph 24.2 mph N/A   Clear
7:52 PM 78.1 °F - 69.1 °F 74% 29.83 in 10.0 mi South 12.7 mph - N/A   Clear
8:52 PM 77.0 °F - 69.1 °F 76% 29.85 in 10.0 mi SSW 10.4 mph - N/A   Clear
9:52 PM 75.0 °F - 69.1 °F 82% 29.86 in 10.0 mi South 8.1 mph - N/A   Clear
10:52 PM 73.9 °F - 69.1 °F 85% 29.88 in 10.0 mi SSW 8.1 mph - N/A   Clear
11:52 PM 73.0 °F - 68.0 °F 84% 29.88 in 10.0 mi South 8.1 mph - N/A   Clear